H1 CPF 2 NER 2021 12 5 9 339 01 glonass131 H2 1301901 9131 39155 2021 12 5 0 0 0 2021 12 8 23 45 0 900 1 1 0 0 0 1 H9 10 0 59553 0.00000 0 -15958276.334 -7971129.500 18236857.383 10 0 59553 900.00000 0 -17297034.022 -9610567.299 16090436.869 10 0 59553 1800.00000 0 -18568287.960 -10932799.947 13631334.752 10 0 59553 2700.00000 0 -19710301.274 -11930544.288 10907122.072 10 0 59553 3600.00000 0 -20663159.614 -12609405.056 7970614.078 10 0 59553 4500.00000 0 -21371359.916 -12987400.951 4878852.128 10 0 59553 5400.00000 0 -21786239.114 -13093970.925 1691994.900 10 0 59553 6300.00000 0 -21868138.225 -12968501.816 -1527859.478 10 0 59553 7200.00000 0 -21588207.854 -12658439.324 -4717896.554 10 0 59553 8100.00000 0 -20929775.889 -12217062.817 -7815828.660 10 0 59553 9000.00000 0 -19889216.754 -11701019.436 -10761131.852 10 0 59553 9900.00000 0 -18476282.985 -11167723.894 -13496250.167 10 0 59553 10800.00000 0 -16713883.179 -10672736.466 -15967741.442 10 0 59553 11700.00000 0 -14637314.441 -10267232.836 -18127340.167 10 0 59553 12600.00000 0 -12292981.262 -9995675.387 -19932914.716 10 0 59553 13500.00000 0 -9736654.959 -9893786.625 -21349299.005 10 0 59553 14400.00000 0 -7031347.587 -9986912.044 -22348981.590 10 0 59553 15300.00000 0 -4244890.700 -10288842.462 -22912638.586 10 0 59553 16200.00000 0 -1447321.566 -10801145.698 -23029500.491 10 0 59553 17100.00000 0 1291812.879 -11513035.242 -22697546.654 10 0 59553 18000.00000 0 3906120.970 -12401780.250 -21923524.924 10 0 59553 18900.00000 0 6334888.990 -13433638.048 -20722797.664 10 0 59553 19800.00000 0 8525357.050 -14565268.075 -19119018.813 10 0 59553 20700.00000 0 10434654.660 -15745565.928 -17143650.029 10 0 59553 21600.00000 0 12031317.465 -16917838.772 -14835326.952 10 0 59553 22500.00000 0 13296324.668 -18022229.330 -12239089.359 10 0 59553 23400.00000 0 14223616.967 -18998285.752 -9405491.460 10 0 59553 24300.00000 0 14820076.816 -19787569.067 -6389610.560 10 0 59553 25200.00000 0 15104975.212 -20336188.941 -3249973.940 10 0 59553 26100.00000 0 15108911.272 -20597161.945 -47425.122 10 0 59553 27000.00000 0 14872291.631 -20532494.476 3156048.601 10 0 59553 27900.00000 0 14443415.423 -20114904.236 6298505.173 10 0 59553 28800.00000 0 13876246.335 -19329109.508 9319231.048 10 0 59553 29700.00000 0 13227965.664 -18172633.397 12159897.061 10 0 59553 30600.00000 0 12556408.756 -16656090.226 14765666.067 10 0 59553 31500.00000 0 11917491.451 -14802942.443 17086232.539 10 0 59553 32400.00000 0 11362733.191 -12648737.829 19076775.922 10 0 59553 33300.00000 0 10936979.158 -10239857.707 20698811.073 10 0 59553 34200.00000 0 10676415.519 -7631826.559 21920920.938 10 0 59553 35100.00000 0 10606959.884 -4887250.946 22719358.618 10 0 59553 36000.00000 0 10743093.918 -2073470.542 23078508.000 10 0 59553 36900.00000 0 11087187.175 739984.136 22991194.282 10 0 59553 37800.00000 0 11629341.461 3484024.804 22458838.013 10 0 59553 38700.00000 0 12347763.914 6092622.682 21491448.660 10 0 59553 39600.00000 0 13209655.444 8505303.367 20107456.185 10 0 59553 40500.00000 0 14172579.844 10669417.074 18333381.849 10 0 59553 41400.00000 0 15186258.850 12542090.504 16203352.209 10 0 59553 42300.00000 0 16194720.094 14091778.763 13758463.287 10 0 59553 43200.00000 0 17138709.545 15299351.827 11046004.904 10 0 59553 44100.00000 0 17958267.925 16158668.791 8118558.227 10 0 59553 45000.00000 0 18595362.675 16676614.325 5032982.690 10 0 59553 45900.00000 0 18996463.585 16872594.310 1849311.236 10 0 59553 46800.00000 0 19114951.588 16777510.807 -1370424.652 10 0 59553 47700.00000 0 18913256.480 16432258.900 -4563416.397 10 0 59553 48600.00000 0 18364630.310 15885809.031 -7667321.043 10 0 59553 49500.00000 0 17454478.390 15192956.714 -10621499.113 10 0 59553 50400.00000 0 16181188.820 14411836.341 -13368221.119 10 0 59553 51300.00000 0 14556423.045 13601306.373 -15853816.879 10 0 59553 52200.00000 0 12604853.356 12818318.953 -18029743.062 10 0 59553 53100.00000 0 10363357.403 12115387.658 -19853546.170 10 0 59553 54000.00000 0 7879703.307 11538262.662 -21289700.847 10 0 59553 54900.00000 0 5210780.945 11123913.292 -22310306.385 10 0 59553 55800.00000 0 2420454.549 10898904.202 -22895627.604 10 0 59553 56700.00000 0 -422872.417 10878234.008 -23034470.001 10 0 59553 57600.00000 0 -3248877.130 11064684.852 -22724382.754 10 0 59553 58500.00000 0 -5988011.736 11448709.141 -21971686.910 10 0 59553 59400.00000 0 -8574159.284 12008856.515 -20791329.793 10 0 59553 60300.00000 0 -10947140.829 12712720.997 -19206570.159 10 0 59553 61200.00000 0 -13054969.995 13518366.246 -17248501.968 10 0 59553 62100.00000 0 -14855762.712 14376166.856 -14955427.668 10 0 59553 63000.00000 0 -16319224.832 15230986.371 -12372094.641 10 0 59553 63900.00000 0 -17427658.254 16024599.012 -9548810.944 10 0 59553 64800.00000 0 -18176446.780 16698252.364 -6540458.452 10 0 59553 65700.00000 0 -18574004.645 17195262.973 -3405423.204 10 0 59553 66600.00000 0 -18641192.960 17463535.935 -204464.059 10 0 59553 67500.00000 0 -18410231.339 17457903.343 3000458.493 10 0 59553 68400.00000 0 -17923152.492 17142184.373 6147371.139 10 0 59553 69300.00000 0 -17229866.125 16490881.779 9175471.890 10 0 59553 70200.00000 0 -16385914.056 15490444.797 12026287.863 10 0 59553 71100.00000 0 -15450010.689 14140046.444 14644785.790 10 0 59553 72000.00000 0 -14481471.236 12451843.170 16980415.403 10 0 59553 72900.00000 0 -13537634.219 10450705.871 18988067.373 10 0 59553 73800.00000 0 -12671384.680 8173432.572 20628929.103 10 0 59553 74700.00000 0 -11928880.118 5667474.098 21871223.402 10 0 59553 75600.00000 0 -11347572.887 2989223.467 22690817.117 10 0 59553 76500.00000 0 -10954610.688 201937.309 23071688.805 10 0 59553 77400.00000 0 -10765681.635 -2626627.359 23006246.669 10 0 59553 78300.00000 0 -10784352.419 -5426766.124 22495490.290 10 0 59553 79200.00000 0 -11001928.240 -8129466.951 21549012.026 10 0 59553 80100.00000 0 -11397841.982 -10669029.575 20184836.475 10 0 59553 81000.00000 0 -11940558.436 -12985557.574 18429099.065 10 0 59553 81900.00000 0 -12588957.940 -15027220.585 16315567.600 10 0 59553 82800.00000 0 -13294143.654 -16752192.544 13885013.612 10 0 59553 83700.00000 0 -14001598.379 -18130184.600 11184443.330 10 0 59553 84600.00000 0 -14653601.413 -19143507.439 8266201.169 10 0 59553 85500.00000 0 -15191804.049 -19787616.871 5186961.741 10 0 59554 0.00000 0 -15559854.527 -20071118.124 2006629.468 10 0 59554 900.00000 0 -15705960.331 -20015227.218 -1212834.584 10 0 59554 1800.00000 0 -15585276.835 -19652710.666 -4408630.691 10 0 59554 2700.00000 0 -15162019.192 -19026348.323 -7518363.898 10 0 59554 3600.00000 0 -14411204.448 -18186984.094 -10481282.464 10 0 59554 4500.00000 0 -13319947.364 -17191248.117 -13239486.537 10 0 59554 5400.00000 0 -11888252.358 -16099048.363 -15739080.910 10 0 59554 6300.00000 0 -10129265.778 -14970939.813 -17931247.136 10 0 59554 7200.00000 0 -8068976.369 -13865484.695 -19773212.162 10 0 59554 8100.00000 0 -5745375.695 -12836717.532 -21229093.183 10 0 59554 9000.00000 0 -3207113.647 -11931823.810 -22270601.464 10 0 59554 9900.00000 0 -511706.073 -11189131.498 -22877591.131 10 0 59554 10800.00000 0 2276629.552 -10636500.527 -23038442.637 10 0 59554 11700.00000 0 5089418.815 -10290177.765 -22750274.329 10 0 59554 12600.00000 0 7856552.204 -10154164.636 -22018979.236 10 0 59554 13500.00000 0 10508974.016 -10220122.199 -20859087.946 10 0 59554 14400.00000 0 12981326.011 -10467815.436 -19293461.914 10 0 59554 15300.00000 0 15214435.929 -10866075.564 -17352824.908 10 0 59554 16200.00000 0 17157548.257 -11374237.310 -15075143.372 10 0 59554 17100.00000 0 18770206.013 -11943988.316 -12504869.183 10 0 59554 18000.00000 0 20023707.294 -12521550.869 -9692060.868 10 0 59554 18900.00000 0 20902078.610 -13050102.660 -6691401.296 10 0 59554 19800.00000 0 21402527.351 -13472333.819 -3561131.561 10 0 59554 20700.00000 0 21535357.455 -13733032.365 -361922.128 10 0 59554 21600.00000 0 21323354.644 -13781589.582 2844296.934 10 0 59554 22500.00000 0 20800669.362 -13574320.719 5995524.447 10 0 59554 23400.00000 0 20011245.936 -13076504.492 9030873.035 10 0 59554 24300.00000 0 19006864.849 -12264056.890 11891728.707 10 0 59554 25200.00000 0 17844880.412 -11124770.001 14522864.194 10 0 59554 26100.00000 0 16585748.087 -9659064.619 16873486.069 10 0 59554 27000.00000 0 15290443.917 -7880225.240 18898197.299 10 0 59554 27900.00000 0 14017882.446 -5814106.987 20557858.404 10 0 59554 28800.00000 0 12822439.330 -3498325.451 21820332.175 10 0 59554 29700.00000 0 11751680.396 -980961.141 22661098.907 10 0 59554 30600.00000 0 10844390.485 1681170.239 23063731.159 10 0 59554 31500.00000 0 10128983.402 4424612.773 23020219.145 10 0 59554 32400.00000 0 9622358.921 7181646.877 22531140.182 10 0 59554 33300.00000 0 9329254.900 9882851.929 21605667.968 10 0 59554 34200.00000 0 9242122.549 12459751.311 20261419.957 10 0 59554 35100.00000 0 9341531.588 14847432.259 18524143.766 10 0 59554 36000.00000 0 9597090.224 16987033.010 16427246.302 10 0 59554 36900.00000 0 9968843.395 18827994.231 14011172.303 10 0 59554 37800.00000 0 10409092.358 20329980.545 11322641.964 10 0 59554 38700.00000 0 10864560.487 21464390.870 8413760.370 10 0 59554 39600.00000 0 11278814.731 22215392.673 5341014.613 10 0 59554 40500.00000 0 11594840.418 22580434.916 2164177.238 10 0 59554 41400.00000 0 11757659.612 22570216.268 -1054862.775 10 0 59554 42300.00000 0 11716880.443 22208108.314 -4253317.908 10 0 59554 43200.00000 0 11429066.973 21529057.064 -7368743.869 10 0 59554 44100.00000 0 10859826.290 20578008.792 -10340279.122 10 0 59554 45000.00000 0 9985521.359 19407927.101 -13109855.663 10 0 59554 45900.00000 0 8794534.129 18077486.141 -15623355.157 10 0 59554 46800.00000 0 7288022.875 16648539.151 -17831685.628 10 0 59554 47700.00000 0 5480139.780 15183471.287 -19691755.719 10 0 59554 48600.00000 0 3397698.290 13742550.589 -21167326.125 10 0 59554 49500.00000 0 1079303.601 12381390.700 -22229720.739 10 0 59554 50400.00000 0 -1426016.995 11148633.677 -22858383.339 10 0 59554 51300.00000 0 -4060625.889 10083951.196 -23041269.372 10 0 59554 52200.00000 0 -6760452.255 9216448.139 -22775066.024 10 0 59554 53100.00000 0 -9457442.311 8563534.821 -22065237.579 10 0 59554 54000.00000 0 -12082179.539 8130313.540 -20925896.722 10 0 59554 54900.00000 0 -14566564.978 7909502.950 -19379506.006 10 0 59554 55800.00000 0 -16846445.656 7881900.711 -17456417.013 10 0 59554 56700.00000 0 -18864082.135 8017362.076 -15194257.838 10 0 59554 57600.00000 0 -20570353.486 8276250.408 -12637182.271 10 0 59554 58500.00000 0 -21926609.390 8611296.100 -9834996.588 10 0 59554 59400.00000 0 -22906094.409 8969783.570 -6842181.879 10 0 59554 60300.00000 0 -23494887.585 9295972.805 -3716831.541 10 0 59554 61200.00000 0 -23692320.789 9533652.683 -519524.971 10 0 59554 62100.00000 0 -23510861.105 9628718.393 2687840.769 10 0 59554 63000.00000 0 -22975464.549 9531664.840 5843239.120 10 0 59554 63900.00000 0 -22122430.083 9199891.954 8885699.678 10 0 59554 64800.00000 0 -20997803.198 8599725.996 11756469.592 10 0 59554 65700.00000 0 -19655396.389 7708073.000 14400129.679 10 0 59554 66600.00000 0 -18154509.138 6513635.805 16765645.265 10 0 59554 67500.00000 0 -16557441.856 5017644.065 18807333.297 10 0 59554 68400.00000 0 -14926906.147 3234066.430 20485728.824 10 0 59554 69300.00000 0 -13323437.754 1189295.111 21768335.716 10 0 59554 70200.00000 0 -11802918.149 -1078685.724 22630248.484 10 0 59554 71100.00000 0 -10414306.246 -3521615.526 23054634.119 10 0 59554 72000.00000 0 -9197673.357 -6082705.025 23033064.928 10 0 59554 72900.00000 0 -8182622.280 -8698746.619 22565695.725 10 0 59554 73800.00000 0 -7387156.097 -11302503.118 21661280.992 10 0 59554 74700.00000 0 -6817044.283 -13825278.593 20337030.177 10 0 59554 75600.00000 0 -6465713.495 -16199567.056 18618301.922 10 0 59554 76500.00000 0 -6314669.099 -18361670.668 16538140.788 10 0 59554 77400.00000 0 -6334431.465 -20254179.309 14136662.988 10 0 59554 78300.00000 0 -6485949.460 -21828208.180 11460300.689 10 0 59554 79200.00000 0 -6722433.155 -23045299.145 8560917.430 10 0 59554 80100.00000 0 -6991529.483 -23878904.654 5494810.370 10 0 59554 81000.00000 0 -7237749.282 -24315390.084 2321617.883 10 0 59554 81900.00000 0 -7405042.526 -24354510.206 -896846.411 10 0 59554 82800.00000 0 -7439411.382 -24009337.736 -4097809.742 10 0 59554 83700.00000 0 -7291448.232 -23305645.371 -7218781.402 10 0 59554 84600.00000 0 -6918688.397 -22280766.433 -10198793.033 10 0 59554 85500.00000 0 -6287674.844 -20981981.995 -12979611.465 10 0 59555 0.00000 0 -5375644.443 -19464503.308 -15506897.944 10 0 59555 900.00000 0 -4171761.038 -17789135.069 -17731290.176 10 0 59555 1800.00000 0 -2677842.170 -16019721.971 -19609380.747 10 0 59555 2700.00000 0 -908545.425 -14220485.404 -21104575.963 10 0 59555 3600.00000 0 1108993.255 -12453366.428 -22187813.980 10 0 59555 4500.00000 0 3336054.798 -10775487.599 -22838129.340 10 0 59555 5400.00000 0 5723727.719 -9236841.505 -23043053.032 10 0 59555 6300.00000 0 8214735.323 -7878303.269 -22798841.094 10 0 59555 7200.00000 0 10745621.749 -6730049.912 -22110528.559 10 0 59555 8100.00000 0 13249204.456 -5810451.403 -20991809.244 10 0 59555 9000.00000 0 15657189.858 -5125477.714 -19464745.393 10 0 59555 9900.00000 0 17902842.346 -4668644.068 -17559314.579 10 0 59555 10800.00000 0 19923595.407 -4421493.521 -15312804.333 10 0 59555 11700.00000 0 21663496.468 -4354593.425 -12769067.738 10 0 59555 12600.00000 0 23075384.621 -4429000.921 -9977655.822 10 0 59555 13500.00000 0 24122712.050 -4598133.142 -6992844.555 10 0 59555 14400.00000 0 24780935.309 -4809961.366 -3872576.041 10 0 59555 15300.00000 0 25038420.670 -5009435.353 -677334.848 10 0 59555 16200.00000 0 24896828.225 -5141035.066 2531018.744 10 0 59555 17100.00000 0 24370961.003 -5151342.261 5690436.448 10 0 59555 18000.00000 0 23488087.353 -4991524.222 8739868.239 10 0 59555 18900.00000 0 22286766.378 -4619626.017 11620425.441 10 0 59555 19800.00000 0 20815226.240 -4002575.913 14276499.556 10 0 59555 20700.00000 0 19129363.155 -3117820.759 16656816.775 10 0 59555 21600.00000 0 17290443.931 -1954523.361 18715409.642 10 0 59555 22500.00000 0 15362606.553 -514271.829 20412488.876 10 0 59555 23400.00000 0 13410261.293 1188729.261 21715200.122 10 0 59555 24300.00000 0 11495498.510 3127995.181 22598252.386 10 0 59555 25200.00000 0 9675608.991 5265612.843 23044406.975 10 0 59555 26100.00000 0 8000818.167 7553575.185 23044817.809 10 0 59555 27000.00000 0 6512327.042 9935545.744 22599216.359 10 0 59555 27900.00000 0 5240740.459 12348983.336 21715936.716 10 0 59555 28800.00000 0 4204947.995 14727541.621 20411778.822 10 0 59555 29700.00000 0 3411504.534 17003646.612 18711710.558 10 0 59555 30600.00000 0 2854537.364 19111147.025 16648412.078 10 0 59555 31500.00000 0 2516185.093 20987928.333 14261668.785 10 0 59555 32400.00000 0 2367551.486 22578381.903 11597622.320 10 0 59555 33300.00000 0 2370135.618 23835625.515 8707891.996 10 0 59555 34200.00000 0 2477679.251 24723380.889 5648582.200 10 0 59555 35100.00000 0 2638354.019 25217427.545 2479194.176 10 0 59555 36000.00000 0 2797195.794 25306569.600 -738536.860 10 0 59555 36900.00000 0 2898682.241 24993072.429 -3941855.919 10 0 59555 37800.00000 0 2889342.576 24292548.746 -7068228.828 10 0 59555 38700.00000 0 2720286.501 23233297.321 -10056583.191 10 0 59555 39600.00000 0 2349542.270 21855121.385 -12848523.213 10 0 59555 40500.00000 0 1744101.766 20207676.519 -15389492.382 10 0 59555 41400.00000 0 881583.039 18348418.375 -17629859.081 10 0 59555 42300.00000 0 -248562.555 16340238.071 -19525901.891 10 0 59555 43200.00000 0 -1644351.638 14248886.582 -21040673.961 10 0 59555 44100.00000 0 -3291109.341 12140298.264 -22144728.609 10 0 59555 45000.00000 0 -5161856.307 10077927.731 -22816691.712 10 0 59555 45900.00000 0 -7218225.865 8120213.089 -23043670.008 10 0 59555 46800.00000 0 -9411872.234 6318272.445 -22821488.202 10 0 59555 47700.00000 0 -11686309.672 4713930.031 -22154751.460 10 0 59555 48600.00000 0 -13979104.436 3338153.497 -21056733.655 10 0 59555 49500.00000 0 -16224326.772 2209965.857 -19549095.193 10 0 59555 50400.00000 0 -18355159.559 1335875.096 -17661437.681 10 0 59555 51300.00000 0 -20306554.189 709842.189 -15430705.752 10 0 59555 52200.00000 0 -22017822.870 313785.487 -12900449.183 10 0 59555 53100.00000 0 -23435059.639 118596.995 -10119960.958 10 0 59555 54000.00000 0 -24513290.192 85624.695 -7143309.041 10 0 59555 54900.00000 0 -25218262.362 168556.004 -4028281.328 10 0 59555 55800.00000 0 -25527804.366 315621.127 -835264.678 10 0 59555 56700.00000 0 -25432696.264 472022.295 2373920.254 10 0 59555 57600.00000 0 -24937020.306 582486.054 5537206.210 10 0 59555 58500.00000 0 -24057977.407 593831.292 8593466.210 10 0 59555 59400.00000 0 -22825178.942 457445.565 11483678.283 10 0 59555 60300.00000 0 -21279444.261 131566.513 14152046.978 10 0 59555 61200.00000 0 -19471154.401 -416726.395 16547061.486 10 0 59555 62100.00000 0 -17458230.128 -1209892.502 18622471.791 10 0 59555 63000.00000 0 -15303817.390 -2258750.361 20338165.790 10 0 59555 63900.00000 0 -13073774.872 -3561787.295 21660932.011 10 0 59555 64800.00000 0 -10834066.049 -5104987.762 22565094.662 10 0 59555 65700.00000 0 -8648161.899 -6862189.244 23033009.660 10 0 59555 66600.00000 0 -6574560.064 -8795952.988 23055412.451 10 0 59555 67500.00000 0 -4664521.669 -10858916.148 22631610.730 10 0 59555 68400.00000 0 -2960118.445 -12995572.184 21769517.450 10 0 59555 69300.00000 0 -1492670.696 -15144408.548 20485522.037 10 0 59555 70200.00000 0 -281641.013 -17240315.665 18804200.348 10 0 59555 71100.00000 0 665969.613 -19217169.334 16757866.635 10 0 59555 72000.00000 0 1355696.962 -21010480.507 14385973.762 10 0 59555 72900.00000 0 1805155.594 -22560002.663 11734370.905 10 0 59555 73800.00000 0 2043065.513 -23812187.569 8854430.997 10 0 59555 74700.00000 0 2107803.166 -24722385.443 5802063.328 10 0 59555 75600.00000 0 2045537.106 -25256695.412 2636629.540 10 0 59555 76500.00000 0 1908026.884 -25393386.093 -580216.142 10 0 59555 77400.00000 0 1750178.847 -25123823.920 -3785739.187 10 0 59555 78300.00000 0 1627463.734 -24452867.627 -6917364.695 10 0 59555 79200.00000 0 1593307.586 -23398710.105 -9913919.005 10 0 59555 80100.00000 0 1696569.159 -21992172.827 -12716846.465 10 0 59555 81000.00000 0 1979213.672 -20275481.891 -15271375.300 10 0 59555 81900.00000 0 2474284.379 -18300577.292 -17527607.590 10 0 59555 82800.00000 0 3204260.496 -16127027.512 -19441510.016 10 0 59555 83700.00000 0 4179873.100 -13819638.516 -20975784.587 10 0 59555 84600.00000 0 5399430.610 -11445859.249 -22100601.423 10 0 59555 85500.00000 0 6848683.076 -9073094.318 -22794178.909 10 0 59556 0.00000 0 8501230.995 -6766038.044 -23043200.249 10 0 59556 900.00000 0 10319461.915 -4584141.196 -22843059.106 10 0 59556 1800.00000 0 12255972.235 -2579319.673 -22197930.557 10 0 59556 2700.00000 0 14255416.315 -793996.098 -21120667.937 10 0 59556 3600.00000 0 16256701.972 740442.206 -19632528.845 10 0 59556 4500.00000 0 18195440.067 2004707.934 -17762737.577 10 0 59556 5400.00000 0 20006544.728 2992159.406 -15547894.170 10 0 59556 6300.00000 0 21626875.038 3708807.631 -13031242.998 10 0 59556 7200.00000 0 22997807.772 4172787.964 -10261816.538 10 0 59556 8100.00000 0 24067634.276 4413322.012 -7293471.931 10 0 59556 9000.00000 0 24793682.386 4469216.407 -4183839.730 10 0 59556 9900.00000 0 25144076.200 4386964.045 -993205.733 10 0 59556 10800.00000 0 25099061.911 4218529.483 2216652.484 10 0 59556 11700.00000 0 24651846.169 4018912.745 5383652.143 10 0 59556 12600.00000 0 23808913.648 3843594.356 8446592.624 10 0 59556 13500.00000 0 22589812.035 3745968.809 11346321.762 10 0 59556 14400.00000 0 21026414.315 3774873.601 14026859.939 10 0 59556 15300.00000 0 19161689.502 3972316.590 16436461.784 10 0 59556 16200.00000 0 17048032.695 4371496.027 18528596.794 10 0 59556 17100.00000 0 14745222.915 4995195.417 20262831.729 10 0 59556 18000.00000 0 12318092.095 5854620.025 21605599.330 10 0 59556 18900.00000 0 9833999.963 6948723.922 22530839.959 10 0 59556 19800.00000 0 7360217.285 8264056.630 23020504.730 10 0 59556 20700.00000 0 4961323.735 9775137.443 23064910.817 10 0 59556 21600.00000 0 2696726.150 11445344.137 22662941.938 10 0 59556 22500.00000 0 618398.329 13228281.891 21822089.296 10 0 59556 23400.00000 0 -1231064.867 15069578.373 20558330.775 10 0 59556 24300.00000 0 -2819998.849 16909033.184 18895848.774 10 0 59556 25200.00000 0 -4128761.359 18683034.727 16866589.842 10 0 59556 26100.00000 0 -5150318.941 20327145.549 14509672.177 10 0 59556 27000.00000 0 -5890302.224 21778749.358 11870650.084 10 0 59556 27900.00000 0 -6366526.368 22979649.172 9000647.487 10 0 59556 28800.00000 0 -6607995.447 23878506.885 5955375.763 10 0 59556 29700.00000 0 -6653431.751 24433020.274 2794053.994 10 0 59556 30600.00000 0 -6549391.512 24611743.586 -421747.639 10 0 59556 31500.00000 0 -6348046.892 24395472.357 -3629318.153 10 0 59556 32400.00000 0 -6104729.044 23778131.307 -6766044.980 10 0 59556 33300.00000 0 -5875338.004 22767125.314 -9770656.148 10 0 59556 34200.00000 0 -5713731.448 21383136.555 -12584438.911 10 0 59556 35100.00000 0 -5669205.698 19659375.032 -15152408.747 10 0 59556 36000.00000 0 -5784178.521 17640313.428 -17424403.658 10 0 59556 36900.00000 0 -6092174.554 15379959.832 -19356080.318 10 0 59556 37800.00000 0 -6616200.895 12939741.826 -20909791.169 10 0 59556 38700.00000 0 -7367583.247 10386092.126 -22055324.367 10 0 59556 39600.00000 0 -8345312.773 7787838.657 -22770491.713 10 0 59556 40500.00000 0 -9535931.485 5213509.839 -23041553.423 10 0 59556 41400.00000 0 -10913960.641 2728668.867 -22863472.199 10 0 59556 42300.00000 0 -12442853.164 393389.032 -22239992.861 10 0 59556 43200.00000 0 -14076428.755 -1740024.801 -21183547.519 10 0 59556 44100.00000 0 -15760730.022 -3628974.477 -19714989.819 10 0 59556 45000.00000 0 -17436220.256 -5242087.526 -17863165.179 10 0 59556 45900.00000 0 -19040229.526 -6560256.033 -15664327.064 10 0 59556 46800.00000 0 -20509545.741 -7577155.143 -13161412.155 10 0 59556 47700.00000 0 -21783041.721 -8299222.969 -10403189.876 10 0 59556 48600.00000 0 -22804228.419 -8745106.286 -7443303.812 10 0 59556 49500.00000 0 -23523628.025 -8944598.645 -4339224.341 10 0 59556 50400.00000 0 -23900868.664 -8937118.327 -1151133.276 10 0 59556 51300.00000 0 -23906414.482 -8769792.421 2059237.839 10 0 59556 52200.00000 0 -23522860.275 -8495229.127 5229793.683 10 0 59556 53100.00000 0 -22745738.123 -8169072.724 8299262.949 10 0 59556 54000.00000 0 -21583803.661 -7847444.108 11208366.162 10 0 59556 54900.00000 0 -20058790.989 -7584373.935 13900942.296 10 0 59556 55800.00000 0 -18204646.896 -7429335.208 16325013.976 10 0 59556 56700.00000 0 -16066276.032 -7424977.734 18433772.489 10 0 59556 57600.00000 0 -13697848.375 -7605158.300 20186465.376 10 0 59556 58500.00000 0 -11160737.791 -7993348.251 21549171.097 10 0 59556 59400.00000 0 -8521175.252 -8601484.767 22495447.222 10 0 59556 60300.00000 0 -5847711.562 -9429314.174 23006840.660 10 0 59556 61200.00000 0 -3208592.333 -10464255.786 23073250.472 10 0 59556 62100.00000 0 -669151.487 -11681793.677 22693136.159 10 0 59556 63000.00000 0 1710670.824 -13046382.463 21873566.584 10 0 59556 63900.00000 0 3878584.477 -14512831.997 20630107.173 10 0 59556 64800.00000 0 5791887.160 -16028116.107 18986545.678 10 0 59556 65700.00000 0 7419003.406 -17533532.582 16974459.478 10 0 59556 66600.00000 0 8740560.297 -18967126.366 14632630.376 10 0 59556 67500.00000 0 9749954.074 -20266276.109 12006315.798 10 0 59556 68400.00000 0 10453382.656 -21370336.380 9146388.388 10 0 59556 69300.00000 0 10869341.306 -22223224.300 6108359.095 10 0 59556 70200.00000 0 11027601.437 -22775840.655 2951301.720 10 0 59556 71100.00000 0 10967714.793 -22988221.519 -263300.462 10 0 59556 72000.00000 0 10737105.876 -22831327.076 -3472762.963 10 0 59556 72900.00000 0 10388833.812 -22288389.278 -6614438.508 10 0 59556 73800.00000 0 9979119.614 -21355758.555 -9626959.732 10 0 59556 74700.00000 0 9564745.462 -20043211.311 -12451459.620 10 0 59556 75600.00000 0 9200438.638 -18373703.219 -15032743.582 10 0 59556 76500.00000 0 8936353.553 -16382577.473 -17320388.007 10 0 59556 77400.00000 0 8815761.182 -14116260.940 -19269741.773 10 0 59556 78300.00000 0 8873046.006 -11630503.346 -20842809.640 10 0 59556 79200.00000 0 9132097.041 -8988234.343 -22008999.290 10 0 59556 80100.00000 0 9605162.050 -6257129.691 -22745717.018 10 0 59556 81000.00000 0 10292213.747 -3506989.806 -23038800.692 10 0 59556 81900.00000 0 11180854.387 -807041.529 -22882782.318 10 0 59556 82800.00000 0 12246761.842 1776723.340 -22280976.241 10 0 59556 83700.00000 0 13454656.975 4184061.509 -21245392.812 10 0 59556 84600.00000 0 14759749.985 6362739.455 -19796480.862 10 0 59556 85500.00000 0 16109603.182 8270449.460 -17962705.753 99